This demonstration page uses our WeatherBlox Daily Observations layout. Learn more.

Left ArrowRight Arrow

Hourly Observations for June 25, 2016

Temp ( °F °C ) Dew Point ( °F °C ) Humidity (%) Winds ( mph kmh ) Pressure ( in mb ) Visibility ( mi km ) Precip ( " mm )
12:51 am 00:51 Partly Cloudy 85 29.4 51 10.6 31 31 ESE 6 9 29.75 1008 10 16 0.00 0.00
1:51 am 01:51 Cloudy 84 28.9 51 10.6 32 32 ESE 15 24 29.76 1008 10 16 0.00 0.00
2:51 am 02:51 Clear 83 28.3 51 10.6 33 33 E 13 20 29.76 1008 10 16 0.00 0.00
3:51 am 03:51 Cloudy 83 28.3 51 10.6 33 33 E 10 17 29.77 1008 10 16 0.00 0.00
4:51 am 04:51 Mostly Cloudy 83 28.3 51 10.6 33 33 ESE 5 7 29.78 1008 10 16 0.00 0.00
5:51 am 05:51 Mostly Sunny 83 28.3 51 10.6 33 33 ESE 7 11 29.80 1009 10 16 0.00 0.00
6:51 am 06:51 Mostly Sunny 84 28.9 51 10.6 32 32 Calm 29.81 1009 10 16 0.00 0.00
7:51 am 07:51 Partly Cloudy 83 28.3 53 11.7 36 36 W 10 17 29.82 1010 10 16 0.00 0.00
8:51 am 08:51 Partly Cloudy 86 30 52 11.1 31 31 W 13 20 29.80 1009 10 16 0.00 0.00
9:51 am 09:51 Sunny 87 30.6 52 11.1 30 30 WNW 16 26 29.80 1009 10 16 0.00 0.00
10:51 am 10:51 Cloudy 89 31.7 51 10.6 27 27 WNW 16 26 29.80 1009 10 16 0.00 0.00
11:51 am 11:51 Sunny 94 34.4 51 10.6 23 23 WNW 16 26 29.78 1008 10 16 0.00 0.00
12:51 pm 12:51 Sunny 94 34.4 50 10 22 22 WNW 17 28 29.75 1007 10 16 0.00 0.00
1:51 pm 13:51 Sunny 97 36.1 47 8.3 18 18 WNW 20 31 29.73 1007 10 16 0.00 0.00
2:51 pm 14:51 Sunny 100 37.8 46 7.8 16 16 WNW 22 35 29.70 1006 10 16 0.00 0.00
3:51 pm 15:51 Sunny 99 37.2 43 6.1 15 15 NW 15 24 29.68 1005 10 16 0.00 0.00
4:51 pm 16:51 Sunny 99 37.2 43 6.1 15 15 NW 20 31 29.66 1004 10 16 0.00 0.00
5:51 pm 17:51 Sunny 99 37.2 43 6.1 15 15 NW 18 30 29.67 1005 10 16 0.00 0.00
6:51 pm 18:51 Sunny 93 33.9 44 6.7 18 18 W 12 19 29.68 1005 10 16 0.00 0.00
7:51 pm 19:51 Clear 90 32.2 43 6.1 19 19 WNW 8 13 29.70 1006 10 16 0.00 0.00
8:51 pm 20:51 Clear 89 31.7 43 6.1 20 20 Calm 29.72 1007 10 16 0.00 0.00
9:51 pm 21:51 Clear 87 30.6 50 10 28 28 E 13 20 29.76 1008 10 16 0.00 0.00
10:51 pm 22:51 Clear 85 29.4 53 11.7 33 33 SE 10 17 29.79 1009 10 16 0.00 0.00
11:51 pm 23:51 Clear 84 28.9 54 12.2 36 36 ESE 8 13 29.79 1009 10 16 0.00 0.00

Powered by AerisWeather